nws-alerts: Checking more than four warning/county codes can delay the loading of your pages. You should use a cron job to get the data.
EllijayWeather Station Historical Data
Daily Summary for January 11, 2019 Units:  English    Metric   Both
Daily Weekly Monthly Yearly Custom
  High: Low: Average:
Temperature: 49.8 °F 20.8 °F 35.5 °F
Dew Point: 29.3 °F 17.6 °F 22.4 °F
Humidity: 91% 34% 62%
Wind Speed: 2.0mph 0.0mph 0mph
Wind Gust: 7.0mph - -
Wind- - ENE
Pressure: 30.42 in 30.29 in -
Precipitation: 0.00 in    
Historical Graphs
 
 
Tabular Data for January 11, 2019
Time Temperature Dew Point Pressure Wind Wind Speed Wind Gust Humidity Rainfall Rate (Hourly) solar
00:04 26.4 °F 18.7 °F 30.29 in Calm     72% 0.00 in meteobridge W/m2
00:09 26.4 °F 18.7 °F 30.29 in Calm     72% 0.00 in meteobridge W/m2
00:14 26.4 °F 18.9 °F 30.29 in Calm     73% 0.00 in meteobridge W/m2
00:19 26.2 °F 18.9 °F 30.29 in Calm     73% 0.00 in meteobridge W/m2
00:24 26.2 °F 18.9 °F 30.30 in Calm     73% 0.00 in meteobridge W/m2
00:29 26.2 °F 18.9 °F 30.30 in Calm     73% 0.00 in meteobridge W/m2
00:34 26.2 °F 18.5 °F 30.30 in Calm     72% 0.00 in meteobridge W/m2
00:39 26.1 °F 18.7 °F 30.29 in Calm     73% 0.00 in meteobridge W/m2
00:44 26.1 °F 18.9 °F 30.30 in Calm     74% 0.00 in meteobridge W/m2
00:49 25.9 °F 18.5 °F 30.30 in Calm     73% 0.00 in meteobridge W/m2
00:54 25.9 °F 18.5 °F 30.30 in Calm     73% 0.00 in meteobridge W/m2
00:59 25.9 °F 18.7 °F 30.30 in Calm     74% 0.00 in meteobridge W/m2
01:04 25.9 °F 18.7 °F 30.30 in Calm     74% 0.00 in meteobridge W/m2
01:09 25.9 °F 18.7 °F 30.31 in Calm     74% 0.00 in meteobridge W/m2
01:14 25.9 °F 18.7 °F 30.31 in Calm     74% 0.00 in meteobridge W/m2
01:19 26.1 °F 18.9 °F 30.31 in Calm     74% 0.00 in meteobridge W/m2
01:24 25.9 °F 19.0 °F 30.32 in Calm     75% 0.00 in meteobridge W/m2
01:29 26.1 °F 18.9 °F 30.32 in Calm     74% 0.00 in meteobridge W/m2
01:34 25.9 °F 18.7 °F 30.32 in Calm     74% 0.00 in meteobridge W/m2
01:39 25.9 °F 18.5 °F 30.32 in Calm     73% 0.00 in meteobridge W/m2
01:44 25.9 °F 18.5 °F 30.32 in Calm     73% 0.00 in meteobridge W/m2
01:49 25.9 °F 18.5 °F 30.32 in Calm     73% 0.00 in meteobridge W/m2
01:54 25.9 °F 18.7 °F 30.32 in Calm     74% 0.00 in meteobridge W/m2
01:59 25.9 °F 18.7 °F 30.32 in Calm     74% 0.00 in meteobridge W/m2
02:04 25.7 °F 18.5 °F 30.32 in Calm     74% 0.00 in meteobridge W/m2
02:09 25.5 °F 18.1 °F 30.32 in Calm     73% 0.00 in meteobridge W/m2
02:14 25.3 °F 18.1 °F 30.32 in Calm     74% 0.00 in meteobridge W/m2
02:19 25.3 °F 18.0 °F 30.32 in Calm     73% 0.00 in meteobridge W/m2
02:24 25.2 °F 18.0 °F 30.32 in Calm     74% 0.00 in meteobridge W/m2
02:29 25.2 °F 18.0 °F 30.32 in Calm     74% 0.00 in meteobridge W/m2
02:34 25.2 °F 18.0 °F 30.32 in Calm     74% 0.00 in meteobridge W/m2
02:39 25.0 °F 18.0 °F 30.32 in Calm     74% 0.00 in meteobridge W/m2
02:44 25.0 °F 18.1 °F 30.32 in Calm     75% 0.00 in meteobridge W/m2
02:49 24.8 °F 18.0 °F 30.32 in Calm     75% 0.00 in meteobridge W/m2
02:54 24.6 °F 17.8 °F 30.32 in Calm     75% 0.00 in meteobridge W/m2
02:59 24.4 °F 18.0 °F 30.32 in Calm     76% 0.00 in meteobridge W/m2
03:04 24.4 °F 18.0 °F 30.32 in Calm     76% 0.00 in meteobridge W/m2
03:09 24.3 °F 17.8 °F 30.32 in Calm     76% 0.00 in meteobridge W/m2
03:14 24.3 °F 18.1 °F 30.32 in Calm     77% 0.00 in meteobridge W/m2
03:19 24.1 °F 18.0 °F 30.32 in Calm     77% 0.00 in meteobridge W/m2
03:24 24.1 °F 18.0 °F 30.32 in Calm     77% 0.00 in meteobridge W/m2
03:29 23.7 °F 17.6 °F 30.32 in Calm     77% 0.00 in meteobridge W/m2
03:34 23.7 °F 17.6 °F 30.32 in Calm     77% 0.00 in meteobridge W/m2
03:39 23.7 °F 18.0 °F 30.32 in Calm     78% 0.00 in meteobridge W/m2
03:44 23.7 °F 18.1 °F 30.32 in Calm     79% 0.00 in meteobridge W/m2
03:49 23.7 °F 18.5 °F 30.32 in Calm     80% 0.00 in meteobridge W/m2
03:54 23.7 °F 18.1 °F 30.32 in Calm     79% 0.00 in meteobridge W/m2
03:59 23.7 °F 18.1 °F 30.32 in Calm     79% 0.00 in meteobridge W/m2
04:04 23.5 °F 18.3 °F 30.33 in Calm     80% 0.00 in meteobridge W/m2
04:09 23.5 °F 18.0 °F 30.33 in Calm     79% 0.00 in meteobridge W/m2
04:14 23.4 °F 18.1 °F 30.33 in Calm     80% 0.00 in meteobridge W/m2
04:19 23.4 °F 18.1 °F 30.33 in Calm     80% 0.00 in meteobridge W/m2
04:24 23.2 °F 18.0 °F 30.33 in Calm     80% 0.00 in meteobridge W/m2
04:29 23.2 °F 18.1 °F 30.33 in Calm     81% 0.00 in meteobridge W/m2
04:34 23.0 °F 17.8 °F 30.34 in Calm     80% 0.00 in meteobridge W/m2
04:39 22.8 °F 18.0 °F 30.34 in Calm     81% 0.00 in meteobridge W/m2
04:44 22.8 °F 18.1 °F 30.34 in Calm     82% 0.00 in meteobridge W/m2
04:49 22.8 °F 18.5 °F 30.34 in Calm     83% 0.00 in meteobridge W/m2
04:54 22.6 °F 18.3 °F 30.34 in Calm     83% 0.00 in meteobridge W/m2
04:59 22.6 °F 18.3 °F 30.34 in Calm     83% 0.00 in meteobridge W/m2
05:04 22.6 °F 18.5 °F 30.34 in Calm     84% 0.00 in meteobridge W/m2
05:09 22.5 °F 18.3 °F 30.34 in Calm     84% 0.00 in meteobridge W/m2
05:14 22.5 °F 18.3 °F 30.34 in Calm     84% 0.00 in meteobridge W/m2
05:19 22.5 °F 18.3 °F 30.34 in Calm     84% 0.00 in meteobridge W/m2
05:24 22.5 °F 18.3 °F 30.34 in Calm     84% 0.00 in meteobridge W/m2
05:29 22.3 °F 18.1 °F 30.34 in Calm     84% 0.00 in meteobridge W/m2
05:34 22.1 °F 18.0 °F 30.34 in Calm     84% 0.00 in meteobridge W/m2
05:39 22.1 °F 18.3 °F 30.34 in Calm     85% 0.00 in meteobridge W/m2
05:44 21.9 °F 18.1 °F 30.34 in Calm     85% 0.00 in meteobridge W/m2
05:49 21.9 °F 18.3 °F 30.34 in Calm     86% 0.00 in meteobridge W/m2
05:54 21.9 °F 18.3 °F 30.34 in Calm     86% 0.00 in meteobridge W/m2
05:59 21.9 °F 18.3 °F 30.34 in Calm     86% 0.00 in meteobridge W/m2
06:04 21.9 °F 18.3 °F 30.34 in Calm     86% 0.00 in meteobridge W/m2
06:09 21.9 °F 18.3 °F 30.34 in Calm     86% 0.00 in meteobridge W/m2
06:14 21.9 °F 18.3 °F 30.34 in Calm     86% 0.00 in meteobridge W/m2
06:19 21.7 °F 18.1 °F 30.34 in Calm     86% 0.00 in meteobridge W/m2
06:24 21.7 °F 18.1 °F 30.35 in Calm     86% 0.00 in meteobridge W/m2
06:29 21.7 °F 18.1 °F 30.35 in Calm     86% 0.00 in meteobridge W/m2
06:34 21.6 °F 18.3 °F 30.34 in Calm     87% 0.00 in meteobridge W/m2
06:39 21.6 °F 18.0 °F 30.34 in Calm     86% 0.00 in meteobridge W/m2
06:44 21.6 °F 18.3 °F 30.35 in Calm     87% 0.00 in meteobridge W/m2
06:49 21.6 °F 18.3 °F 30.35 in Calm     87% 0.00 in meteobridge W/m2
06:54 21.6 °F 18.3 °F 30.35 in Calm     87% 0.00 in meteobridge W/m2
06:59 21.4 °F 18.1 °F 30.35 in Calm     87% 0.00 in meteobridge W/m2
07:03 21.4 °F 18.3 °F 30.36 in Calm     88% 0.00 in meteobridge W/m2
07:09 21.2 °F 18.0 °F 30.36 in Calm     87% 0.00 in meteobridge W/m2
07:14 21.2 °F 18.1 °F 30.36 in Calm     88% 0.00 in meteobridge W/m2
07:19 21.0 °F 18.3 °F 30.36 in Calm     89% 0.00 in meteobridge W/m2
07:24 21.0 °F 18.0 °F 30.36 in Calm     88% 0.00 in meteobridge W/m2
07:29 21.0 °F 18.0 °F 30.36 in Calm     88% 0.00 in meteobridge W/m2
07:33 21.0 °F 18.0 °F 30.36 in Calm     88% 0.00 in meteobridge W/m2
07:39 21.0 °F 18.0 °F 30.37 in Calm     88% 0.00 in meteobridge W/m2
07:44 21.0 °F 18.0 °F 30.37 in Calm     88% 0.00 in meteobridge W/m2
07:49 21.0 °F 18.0 °F 30.37 in Calm     88% 0.00 in meteobridge W/m2
07:54 21.0 °F 18.3 °F 30.37 in Calm     89% 0.00 in meteobridge W/m2
07:59 21.0 °F 18.3 °F 30.37 in Calm     89% 0.00 in meteobridge W/m2
08:04 20.8 °F 18.1 °F 30.37 in Calm     89% 0.00 in meteobridge W/m2
08:09 20.8 °F 18.1 °F 30.37 in Calm     89% 0.00 in meteobridge W/m2
08:14 21.0 °F 18.5 °F 30.37 in Calm     90% 0.00 in meteobridge W/m2
08:19 21.0 °F 18.5 °F 30.37 in Calm     90% 0.00 in meteobridge W/m2
08:24 21.0 °F 18.5 °F 30.37 in Calm     90% 0.00 in meteobridge W/m2
08:29 21.2 °F 18.7 °F 30.38 in Calm     90% 0.00 in meteobridge W/m2
08:34 21.4 °F 18.9 °F 30.38 in Calm     90% 0.00 in meteobridge W/m2
08:39 21.6 °F 19.0 °F 30.38 in Calm     90% 0.00 in meteobridge W/m2
08:44 21.7 °F 19.2 °F 30.38 in Calm     90% 0.00 in meteobridge W/m2
08:49 22.1 °F 19.9 °F 30.39 in Calm     91% 0.00 in meteobridge W/m2
08:54 22.5 °F 20.3 °F 30.39 in Calm     91% 0.00 in meteobridge W/m2
08:59 22.8 °F 20.7 °F 30.39 in Calm     91% 0.00 in meteobridge W/m2
09:04 23.2 °F 20.5 °F 30.40 in Calm     89% 0.00 in meteobridge W/m2
09:09 23.7 °F 21.0 °F 30.40 in Calm     89% 0.00 in meteobridge W/m2
09:14 24.3 °F 21.0 °F 30.41 in Calm     87% 0.00 in meteobridge W/m2
09:19 24.6 °F 20.8 °F 30.41 in Calm     85% 0.00 in meteobridge W/m2
09:24 25.3 °F 20.8 °F 30.41 in Calm   1.0 mph 83% 0.00 in meteobridge W/m2
09:29 26.2 °F 21.2 °F 30.41 in Calm   2.0 mph 81% 0.00 in meteobridge W/m2
09:34 27.1 °F 21.6 °F 30.41 in Calm     79% 0.00 in meteobridge W/m2
09:39 28.2 °F 21.9 °F 30.41 in Calm     77% 0.00 in meteobridge W/m2
09:44 28.8 °F 22.1 °F 30.41 in Calm     76% 0.00 in meteobridge W/m2
09:49 29.5 °F 22.3 °F 30.41 in Calm     74% 0.00 in meteobridge W/m2
09:54 30.0 °F 22.5 °F 30.42 in Calm     73% 0.00 in meteobridge W/m2
09:59 30.7 °F 22.8 °F 30.41 in Calm     72% 0.00 in meteobridge W/m2
10:04 31.6 °F 22.6 °F 30.41 in Calm     69% 0.00 in meteobridge W/m2
10:09 32.2 °F 23.2 °F 30.41 in Calm     69% 0.00 in meteobridge W/m2
10:14 32.7 °F 23.0 °F 30.42 in Calm     67% 0.00 in meteobridge W/m2
10:19 33.4 °F 23.0 °F 30.41 in Calm     65% 0.00 in meteobridge W/m2
10:24 34.2 °F 23.5 °F 30.41 in Calm     65% 0.00 in meteobridge W/m2
10:29 34.5 °F 23.5 °F 30.41 in Calm     64% 0.00 in meteobridge W/m2
10:34 35.1 °F 23.7 °F 30.41 in Calm     63% 0.00 in meteobridge W/m2
10:39 35.6 °F 23.9 °F 30.42 in Calm   1.0 mph 62% 0.00 in meteobridge W/m2
10:44 36.1 °F 24.1 °F 30.42 in Calm     61% 0.00 in meteobridge W/m2
10:49 36.7 °F 24.4 °F 30.42 in Calm     61% 0.00 in meteobridge W/m2
10:54 37.6 °F 23.7 °F 30.42 in Calm     57% 0.00 in meteobridge W/m2
10:59 38.1 °F 23.9 °F 30.42 in Calm     56% 0.00 in meteobridge W/m2
11:04 38.7 °F 24.3 °F 30.42 in Calm     56% 0.00 in meteobridge W/m2
11:09 39.4 °F 24.1 °F 30.42 in Calm     54% 0.00 in meteobridge W/m2
11:14 40.1 °F 24.8 °F 30.41 in NNE 2.0 mph 2.0 mph 54% 0.00 in meteobridge W/m2
11:19 40.6 °F 23.5 °F 30.42 in NNE 0.9 mph 2.0 mph 50% 0.00 in meteobridge W/m2
11:24 41.2 °F 23.0 °F 30.42 in Calm     48% 0.00 in meteobridge W/m2
11:29 41.7 °F 23.5 °F 30.41 in Calm     48% 0.00 in meteobridge W/m2
11:34 42.3 °F 23.0 °F 30.41 in Calm     46% 0.00 in meteobridge W/m2
11:39 42.3 °F 23.5 °F 30.40 in Calm     47% 0.00 in meteobridge W/m2
11:44 42.4 °F 24.1 °F 30.40 in Calm     48% 0.00 in meteobridge W/m2
11:49 43.2 °F 24.3 °F 30.39 in Calm     47% 0.00 in meteobridge W/m2
11:54 43.3 °F 24.4 °F 30.39 in Calm     47% 0.00 in meteobridge W/m2
11:59 43.7 °F 23.7 °F 30.39 in ENE 0.9 mph 3.0 mph 45% 0.00 in meteobridge W/m2
12:04 43.9 °F 23.9 °F 30.38 in Calm     45% 0.00 in meteobridge W/m2
12:09 44.1 °F 23.5 °F 30.38 in Calm     44% 0.00 in meteobridge W/m2
12:14 44.4 °F 23.9 °F 30.37 in Calm   1.0 mph 44% 0.00 in meteobridge W/m2
12:19 44.6 °F 24.1 °F 30.37 in East 0.9 mph 2.0 mph 44% 0.00 in meteobridge W/m2
12:24 44.8 °F 23.0 °F 30.37 in Calm   4.0 mph 42% 0.00 in meteobridge W/m2
12:29 45.0 °F 24.4 °F 30.36 in Calm     44% 0.00 in meteobridge W/m2
12:34 45.1 °F 23.9 °F 30.36 in Calm     43% 0.00 in meteobridge W/m2
12:39 45.5 °F 24.3 °F 30.36 in Calm     43% 0.00 in meteobridge W/m2
12:44 45.7 °F 25.0 °F 30.35 in Calm     44% 0.00 in meteobridge W/m2
12:49 45.9 °F 24.1 °F 30.35 in Calm   2.0 mph 42% 0.00 in meteobridge W/m2
12:54 46.0 °F 24.3 °F 30.35 in Calm     42% 0.00 in meteobridge W/m2
12:59 46.6 °F 24.1 °F 30.34 in Calm   1.0 mph 41% 0.00 in meteobridge W/m2
13:04 47.1 °F 25.7 °F 30.34 in Calm   1.0 mph 43% 0.00 in meteobridge W/m2
13:09 47.5 °F 23.7 °F 30.34 in Calm   7.0 mph 39% 0.00 in meteobridge W/m2
13:14 47.7 °F 23.9 °F 30.34 in Calm   3.0 mph 39% 0.00 in meteobridge W/m2
13:19 47.8 °F 24.6 °F 30.34 in Calm   1.0 mph 40% 0.00 in meteobridge W/m2
13:24 47.8 °F 26.4 °F 30.34 in Calm     43% 0.00 in meteobridge W/m2
13:29 48.0 °F 24.3 °F 30.34 in Calm     39% 0.00 in meteobridge W/m2
13:34 48.2 °F 23.2 °F 30.34 in SE 0.9 mph 1.0 mph 37% 0.00 in meteobridge W/m2
13:38 48.4 °F 22.6 °F 30.34 in Calm     36% 0.00 in meteobridge W/m2
13:44 48.4 °F 22.6 °F 30.35 in Calm   1.0 mph 36% 0.00 in meteobridge W/m2
13:49 48.4 °F 21.4 °F 30.34 in Calm   2.0 mph 34% 0.00 in meteobridge W/m2
13:54 48.4 °F 21.4 °F 30.33 in Calm   1.0 mph 34% 0.00 in meteobridge W/m2
13:59 48.4 °F 22.6 °F 30.32 in Calm   2.0 mph 36% 0.00 in meteobridge W/m2
14:04 48.6 °F 22.8 °F 30.32 in Calm   1.0 mph 36% 0.00 in meteobridge W/m2
14:09 48.6 °F 23.5 °F 30.32 in Calm   2.0 mph 37% 0.00 in meteobridge W/m2
14:14 48.7 °F 23.5 °F 30.32 in Calm     37% 0.00 in meteobridge W/m2
14:19 48.7 °F 23.5 °F 30.32 in Calm   1.0 mph 37% 0.00 in meteobridge W/m2
14:24 48.7 °F 23.0 °F 30.31 in Calm   2.0 mph 36% 0.00 in meteobridge W/m2
14:29 48.7 °F 23.5 °F 30.31 in East 0.9 mph 1.0 mph 37% 0.00 in meteobridge W/m2
14:34 48.9 °F 22.5 °F 30.31 in Calm     35% 0.00 in meteobridge W/m2
14:39 49.3 °F 22.8 °F 30.31 in Calm     35% 0.00 in meteobridge W/m2
14:44 49.5 °F 23.5 °F 30.31 in Calm   2.0 mph 36% 0.00 in meteobridge W/m2
14:49 49.6 °F 23.2 °F 30.31 in Calm     35% 0.00 in meteobridge W/m2
14:54 49.6 °F 23.2 °F 30.31 in Calm     35% 0.00 in meteobridge W/m2
14:59 49.6 °F 23.2 °F 30.31 in Calm     35% 0.00 in meteobridge W/m2
15:04 49.6 °F 23.2 °F 30.31 in Calm     35% 0.00 in meteobridge W/m2
15:09 49.5 °F 23.0 °F 30.31 in Calm     35% 0.00 in meteobridge W/m2
15:14 49.6 °F 23.2 °F 30.31 in Calm   1.0 mph 35% 0.00 in meteobridge W/m2
15:19 49.6 °F 25.0 °F 30.32 in Calm     38% 0.00 in meteobridge W/m2
15:24 49.6 °F 24.4 °F 30.32 in Calm   1.0 mph 37% 0.00 in meteobridge W/m2
15:29 49.8 °F 23.9 °F 30.32 in Calm     36% 0.00 in meteobridge W/m2
15:34 49.8 °F 23.2 °F 30.32 in Calm     35% 0.00 in meteobridge W/m2
15:39 49.6 °F 24.4 °F 30.31 in Calm   2.0 mph 37% 0.00 in meteobridge W/m2
15:44 49.6 °F 24.4 °F 30.31 in Calm   1.0 mph 37% 0.00 in meteobridge W/m2
15:49 49.6 °F 25.7 °F 30.30 in Calm     39% 0.00 in meteobridge W/m2
15:54 49.5 °F 25.5 °F 30.30 in Calm     39% 0.00 in meteobridge W/m2
15:59 49.3 °F 25.3 °F 30.30 in Calm   1.0 mph 39% 0.00 in meteobridge W/m2
16:04 49.3 °F 23.5 °F 30.30 in Calm     36% 0.00 in meteobridge W/m2
16:09 49.5 °F 25.0 °F 30.30 in Calm     38% 0.00 in meteobridge W/m2
16:14 49.3 °F 24.1 °F 30.30 in Calm   1.0 mph 37% 0.00 in meteobridge W/m2
16:19 49.3 °F 23.5 °F 30.31 in Calm     36% 0.00 in meteobridge W/m2
16:24 49.1 °F 24.6 °F 30.31 in Calm     38% 0.00 in meteobridge W/m2
16:29 48.9 °F 23.2 °F 30.31 in Calm     36% 0.00 in meteobridge W/m2
16:34 48.9 °F 23.7 °F 30.31 in Calm     37% 0.00 in meteobridge W/m2
16:39 48.7 °F 24.8 °F 30.31 in Calm     39% 0.00 in meteobridge W/m2
16:44 48.6 °F 22.8 °F 30.31 in Calm     36% 0.00 in meteobridge W/m2
16:49 48.4 °F 23.4 °F 30.31 in Calm     37% 0.00 in meteobridge W/m2
16:54 48.4 °F 23.4 °F 30.31 in Calm   1.0 mph 37% 0.00 in meteobridge W/m2
16:59 48.0 °F 23.5 °F 30.31 in Calm     38% 0.00 in meteobridge W/m2
17:04 47.8 °F 24.1 °F 30.31 in Calm     39% 0.00 in meteobridge W/m2
17:09 47.7 °F 23.9 °F 30.31 in Calm     39% 0.00 in meteobridge W/m2
17:14 47.3 °F 23.5 °F 30.32 in Calm     39% 0.00 in meteobridge W/m2
17:19 46.9 °F 23.2 °F 30.32 in Calm     39% 0.00 in meteobridge W/m2
17:24 46.8 °F 23.7 °F 30.32 in Calm     40% 0.00 in meteobridge W/m2
17:29 46.4 °F 23.4 °F 30.32 in Calm     40% 0.00 in meteobridge W/m2
17:34 46.0 °F 24.8 °F 30.32 in Calm     43% 0.00 in meteobridge W/m2
17:39 45.5 °F 25.3 °F 30.32 in Calm     45% 0.00 in meteobridge W/m2
17:44 45.1 °F 24.4 °F 30.32 in Calm     44% 0.00 in meteobridge W/m2
17:49 44.6 °F 24.6 °F 30.32 in Calm     45% 0.00 in meteobridge W/m2
17:54 44.2 °F 24.8 °F 30.32 in Calm     46% 0.00 in meteobridge W/m2
17:59 43.9 °F 25.0 °F 30.32 in Calm     47% 0.00 in meteobridge W/m2
18:04 43.3 °F 25.5 °F 30.32 in Calm     49% 0.00 in meteobridge W/m2
18:09 43.0 °F 25.7 °F 30.32 in Calm     50% 0.00 in meteobridge W/m2
18:14 42.3 °F 26.4 °F 30.32 in Calm     53% 0.00 in meteobridge W/m2
18:19 41.9 °F 26.1 °F 30.32 in Calm     53% 0.00 in meteobridge W/m2
18:24 41.5 °F 25.7 °F 30.32 in Calm     53% 0.00 in meteobridge W/m2
18:29 41.2 °F 26.6 °F 30.32 in Calm     56% 0.00 in meteobridge W/m2
18:34 40.8 °F 27.7 °F 30.33 in Calm     59% 0.00 in meteobridge W/m2
18:39 40.6 °F 26.2 °F 30.33 in Calm     56% 0.00 in meteobridge W/m2
18:44 40.5 °F 25.5 °F 30.33 in Calm     55% 0.00 in meteobridge W/m2
18:49 40.5 °F 27.3 °F 30.34 in Calm     59% 0.00 in meteobridge W/m2
18:54 40.5 °F 26.4 °F 30.34 in Calm     57% 0.00 in meteobridge W/m2
18:59 40.5 °F 27.7 °F 30.34 in Calm     60% 0.00 in meteobridge W/m2
19:04 40.5 °F 26.8 °F 30.34 in Calm     58% 0.00 in meteobridge W/m2
19:09 40.5 °F 27.3 °F 30.34 in Calm     59% 0.00 in meteobridge W/m2
19:14 40.5 °F 28.4 °F 30.34 in Calm     62% 0.00 in meteobridge W/m2
19:19 40.3 °F 27.9 °F 30.34 in Calm     61% 0.00 in meteobridge W/m2
19:24 40.3 °F 27.9 °F 30.33 in Calm     61% 0.00 in meteobridge W/m2
19:29 40.3 °F 28.2 °F 30.34 in Calm     62% 0.00 in meteobridge W/m2
19:34 40.3 °F 27.5 °F 30.33 in Calm     60% 0.00 in meteobridge W/m2
19:39 40.3 °F 27.1 °F 30.34 in Calm     59% 0.00 in meteobridge W/m2
19:44 40.3 °F 28.2 °F 30.33 in Calm     62% 0.00 in meteobridge W/m2
19:49 40.3 °F 28.2 °F 30.34 in Calm     62% 0.00 in meteobridge W/m2
19:54 40.5 °F 28.9 °F 30.34 in Calm     63% 0.00 in meteobridge W/m2
19:59 40.6 °F 28.6 °F 30.34 in Calm     62% 0.00 in meteobridge W/m2
20:04 40.6 °F 27.5 °F 30.34 in Calm     59% 0.00 in meteobridge W/m2
20:09 40.8 °F 29.1 °F 30.33 in Calm     63% 0.00 in meteobridge W/m2
20:14 40.8 °F 28.8 °F 30.33 in Calm   1.0 mph 62% 0.00 in meteobridge W/m2
20:19 41.2 °F 25.9 °F 30.33 in NNE 0.9 mph 2.0 mph 54% 0.00 in meteobridge W/m2
20:24 41.5 °F 28.2 °F 30.33 in Calm   1.0 mph 59% 0.00 in meteobridge W/m2
20:29 41.9 °F 27.3 °F 30.34 in Calm     56% 0.00 in meteobridge W/m2
20:34 42.1 °F 27.1 °F 30.34 in Calm     55% 0.00 in meteobridge W/m2
20:39 42.3 °F 27.7 °F 30.34 in Calm     56% 0.00 in meteobridge W/m2
20:44 42.3 °F 29.3 °F 30.34 in Calm     60% 0.00 in meteobridge W/m2
20:49 42.3 °F 28.0 °F 30.34 in Calm     57% 0.00 in meteobridge W/m2
20:54 42.3 °F 28.9 °F 30.34 in Calm     59% 0.00 in meteobridge W/m2
20:59 42.3 °F 29.3 °F 30.34 in Calm     60% 0.00 in meteobridge W/m2
21:04 42.3 °F 27.3 °F 30.33 in Calm     55% 0.00 in meteobridge W/m2
21:09 42.4 °F 26.1 °F 30.34 in Calm     52% 0.00 in meteobridge W/m2
21:14 42.6 °F 28.0 °F 30.34 in Calm     56% 0.00 in meteobridge W/m2
21:19 42.6 °F 26.6 °F 30.34 in Calm     53% 0.00 in meteobridge W/m2
21:24 42.6 °F 25.3 °F 30.34 in Calm     50% 0.00 in meteobridge W/m2
21:29 43.0 °F 25.7 °F 30.34 in Calm     50% 0.00 in meteobridge W/m2
21:34 43.2 °F 25.3 °F 30.34 in Calm   1.0 mph 49% 0.00 in meteobridge W/m2
21:39 43.3 °F 25.9 °F 30.34 in Calm     50% 0.00 in meteobridge W/m2
21:44 43.3 °F 25.5 °F 30.35 in Calm     49% 0.00 in meteobridge W/m2
21:49 43.3 °F 25.9 °F 30.35 in Calm   2.0 mph 50% 0.00 in meteobridge W/m2
21:54 43.3 °F 25.5 °F 30.35 in Calm   1.0 mph 49% 0.00 in meteobridge W/m2
21:59 43.3 °F 25.5 °F 30.35 in Calm   1.0 mph 49% 0.00 in meteobridge W/m2
22:04 43.5 °F 25.7 °F 30.35 in Calm     49% 0.00 in meteobridge W/m2
22:09 43.5 °F 28.0 °F 30.35 in Calm     54% 0.00 in meteobridge W/m2
22:14 43.5 °F 25.7 °F 30.35 in Calm   2.0 mph 49% 0.00 in meteobridge W/m2
22:19 43.5 °F 25.2 °F 30.35 in Calm   2.0 mph 48% 0.00 in meteobridge W/m2
22:24 43.5 °F 25.2 °F 30.35 in Calm     48% 0.00 in meteobridge W/m2
22:29 43.5 °F 26.1 °F 30.36 in Calm     50% 0.00 in meteobridge W/m2
22:34 43.5 °F 26.1 °F 30.36 in Calm     50% 0.00 in meteobridge W/m2
22:39 43.3 °F 27.0 °F 30.37 in Calm     52% 0.00 in meteobridge W/m2
22:44 43.3 °F 27.0 °F 30.37 in Calm     52% 0.00 in meteobridge W/m2
22:49 43.2 °F 25.7 °F 30.37 in Calm     50% 0.00 in meteobridge W/m2
22:54 43.2 °F 25.7 °F 30.37 in Calm     50% 0.00 in meteobridge W/m2
22:59 43.2 °F 27.1 °F 30.37 in Calm     53% 0.00 in meteobridge W/m2
23:04 43.0 °F 27.0 °F 30.37 in Calm     53% 0.00 in meteobridge W/m2
23:09 43.0 °F 25.7 °F 30.38 in Calm     50% 0.00 in meteobridge W/m2
23:14 42.8 °F 26.8 °F 30.38 in Calm     53% 0.00 in meteobridge W/m2
23:19 42.8 °F 26.4 °F 30.39 in Calm     52% 0.00 in meteobridge W/m2
23:24 42.6 °F 25.7 °F 30.39 in Calm     51% 0.00 in meteobridge W/m2
23:29 42.6 °F 26.2 °F 30.38 in Calm     52% 0.00 in meteobridge W/m2
23:34 42.6 °F 27.5 °F 30.39 in Calm     55% 0.00 in meteobridge W/m2
23:39 42.4 °F 27.0 °F 30.38 in Calm     54% 0.00 in meteobridge W/m2
23:44 42.4 °F 26.1 °F 30.39 in Calm   1.0 mph 52% 0.00 in meteobridge W/m2
23:49 42.4 °F 26.1 °F 30.38 in Calm     52% 0.00 in meteobridge W/m2
23:54 42.3 °F 25.3 °F 30.37 in Calm   4.0 mph 51% 0.00 in meteobridge W/m2
23:59 42.3 °F 25.3 °F 30.38 in Calm   1.0 mph 51% 0.00 in meteobridge W/m2
EllijayWeather
Compliments of Weather Underground - 2.5 mb